Location: Possagno
(45.8500°N, 11.8667°E)
Time: 21:51:41
(UTC+00:00)

Resurs 1-4 Rocket - Pass Details

Date: 02 October 2020
Orbit: 800 x 813 km, 98.6° (Epoch: 27 October)

Event Time Altitude Azimuth Distance (km) Brightness Sun altitude
Rises 01:49:56 0° 6° (N) 3,332 5.8 -34.2°
Reaches altitude 10° 01:52:28 10° 357° (N) 2,399 4.9 -33.9°
Enters shadow 01:53:57 18° 347° (NNW) 1,906 4.2 -33.7°
